"TOA5","AWS1","CR1000","7964","CR1000.Std.14","CPU:AWS1_114.CR1","64363","TBL110"
"TIMESTAMP","RECORD","Wind_spd_WVc(1)","Wind_spd_WVc(2)","Air_Temp_Avg","Humidity_Avg","SW_upper_Wm2_Avg","Rain_Tot","Press_Avg","Issui_Tot","Depth_cm","SR50A_Raw","Quality","Ground_Temp_Avg(1)","Ground_Temp_Avg(2)","SW_lower_Wm2_Avg","Albedo_Avg","SWC_per(1)","SWC_per(2)","Period(1)","Period(2)"
"TS","RN","","","","","","","","","","","","","","","","","","",""
"","","WVc","WVc","Avg","Avg","Avg","Tot","Avg","Tot","Smp","Smp","Smp","Avg","Avg","Avg","Avg","Smp","Smp","Smp","Smp"
"2016-03-01 00:00:00",224701,0,0,-9.03,90.5,0.1809659,0,856.8959,0.5,36.9,2.859,189,0.704,1.185,0.09862067,0.241,51.33,59.2,33.62,35.5
"2016-03-01 00:10:00",224702,0,0,-9.08,91.1,0.1770397,0,857.1135,0,37.51,2.853,191,0.716,1.194,0.07965933,0.129,51.33,59.2,33.62,35.5
"2016-03-01 00:20:00",224703,0,0,-9.25,91.4,0.2360567,0,857.3867,0,37.52,2.854,175,0.721,1.229,0.01138021,0.048,51.33,59.2,33.62,35.5
"2016-03-01 00:30:00",224704,0,0,-9.41,89.9,0.2754012,0,857.4944,0,36.98,2.86,180,0.722,1.239,0,0,51.27,59.2,33.61,35.5
"2016-03-01 00:40:00",224705,0,0,-9.47,90.4,0.2360587,0,857.6168,0.5,37.61,2.854,195,0.723,1.239,0.03034739,0.129,51.27,59.2,33.61,35.5
"2016-03-01 00:50:00",224706,0,0,-9.59,88.7,0.2360588,0,857.815,0,37.86,2.852,176,0.723,1.242,0.003793427,0.016,51.27,59.2,33.61,35.5
"2016-03-01 01:00:00",224707,0,0,-9.67,88,0.2360588,0,857.8298,0,38.14,2.85,191,0.723,1.242,0.02655399,0.112,51.27,59.2,33.61,35.5
"2016-03-01 01:10:00",224708,0,0,-9.78,87.9,0.2163872,0,857.9626,0,37.73,2.854,172,0.723,1.242,0.02276056,0.064,51.27,59.2,33.61,35.5
"2016-03-01 01:20:00",224709,0,0,-9.75,89.3,0.01180294,0,858.068,0,38.17,2.85,189,0.723,1.242,0.1820845,0.048,51.27,59.2,33.61,35.5
"2016-03-01 01:30:00",224710,0,0,-9.87,90.3,0,0,858.0806,0.5,38.11,2.851,190,0.723,1.242,0.0986291,0,51.27,59.2,33.61,35.5
"2016-03-01 01:40:00",224711,0,0,-9.85,90.2,0.01967157,0,858.1038,0,38.88,2.843,178,0.723,1.242,0.2124319,0.048,51.33,59.2,33.62,35.5
"2016-03-01 01:50:00",224712,0,0,-9.86,89.2,0.01573725,0,858.3105,0,38.83,2.843,193,0.723,1.242,0.2200188,0.064,51.27,59.2,33.61,35.5
"2016-03-01 02:00:00",224713,0,0,-9.74,92.6,0,0,858.3632,0,38.39,2.847,199,0.723,1.242,0.2276056,0,51.33,59.2,33.62,35.5
"2016-03-01 02:10:00",224714,0,0,-9.69,92.1,0,0,858.3189,0.5,38.64,2.845,193,0.723,1.242,0.1517371,0,51.27,59.2,33.61,35.5
"2016-03-01 02:20:00",224715,0,0,-9.76,91.7,0,0,858.3147,0,39.72,2.834,196,0.723,1.242,0.1251831,0,51.27,59.2,33.61,35.5
"2016-03-01 02:30:00",224716,0,0,-9.75,93.3,0,0,858.4011,0.5,39.16,2.839,213,0.723,1.242,0.1175962,0,51.27,59.2,33.61,35.5
"2016-03-01 02:40:00",224717,0,0,-9.74,94.2,0,0,858.4644,0,40.01,2.831,194,0.723,1.242,0.1479437,0,51.27,59.2,33.61,35.5
"2016-03-01 02:50:00",224718,0,0,-9.77,94.2,0,0,858.3358,0,40.4,2.827,192,0.723,1.242,0.07586853,0,51.33,59.2,33.62,35.5
"2016-03-01 03:00:00",224719,0,0,-9.85,94,0.1298323,0,858.3273,0.5,41.01,2.821,186,0.723,1.242,0.003793427,0.016,51.27,59.2,33.61,35.5
"2016-03-01 03:10:00",224720,0,0,-9.86,94.6,0.09048922,0,858.5951,0,40.94,2.822,192,0.723,1.242,0.03034742,0.016,51.27,59.2,33.61,35.5
"2016-03-01 03:20:00",224721,0,0,-9.85,93.6,0.1180294,0,858.5846,0,40.94,2.822,204,0.723,1.242,0.0417277,0,51.27,59.2,33.61,35.5
"2016-03-01 03:30:00",224722,0,0,-9.96,92.9,0.2242559,0,858.5593,0.5,42.21,2.81,189,0.723,1.242,0.02276056,0.096,51.27,59.2,33.61,35.5
"2016-03-01 03:40:00",224723,0,0,-10.01,93.7,0.2360588,0,858.574,0,41.62,2.816,200,0.723,1.242,0,0,51.27,59.2,33.61,35.5
"2016-03-01 03:50:00",224724,0,0,-10.03,94.3,0.2321245,0,858.7363,0.5,41.03,2.822,240,0.723,1.242,0.003793427,0.016,51.27,59.2,33.61,35.5
"2016-03-01 04:00:00",224725,0,0,-10.05,94.1,0.2360588,0,858.8565,0,43.58,2.796,242,0.723,1.242,0.02655399,0.112,51.27,59.2,33.61,35.5
"2016-03-01 04:10:00",224726,0,0,-10.06,93.9,0.1573725,0,859.1053,0.5,44.9,2.783,198,0.723,1.242,0.08724882,0.112,51.27,59.2,33.61,35.5
"2016-03-01 04:20:00",224727,0,0,-10.19,92.9,0.2360588,0,859.2972,0.5,44.74,2.786,200,0.723,1.242,0.01896713,0.08,51.27,59.2,33.61,35.5
"2016-03-01 04:30:00",224728,0,0,-10.37,92.4,0.2360588,0,859.4321,0.5,46.85,2.765,193,0.723,1.242,0,0,51.33,59.2,33.62,35.5
"2016-03-01 04:40:00",224729,0,0,-10.46,90.1,0.2360588,0,859.586,0.5,47.65,2.757,197,0.723,1.242,0,0,51.27,59.2,33.61,35.5
"2016-03-01 04:50:00",224730,0,0,-10.52,90.2,0.2360588,0,859.586,0,47.18,2.762,243,0.723,1.242,0,0,51.27,59.2,33.61,35.5
"2016-03-01 05:00:00",224731,0,0,-10.53,92.3,0.2360588,0,859.74,0,47.58,2.758,198,0.723,1.242,0,0,51.33,59.2,33.62,35.5
"2016-03-01 05:10:00",224732,0,0,-10.53,91.1,0.2360588,0,859.955,0,47.38,2.76,201,0.723,1.242,0.007586854,0.032,51.27,59.2,33.61,35.5
"2016-03-01 05:20:00",224733,0,0,-10.62,90.5,0.2360588,0,860.1299,0.5,48.65,2.748,194,0.723,1.242,0.007586854,0.032,51.27,59.2,33.61,35.5
"2016-03-01 05:30:00",224734,0,0,-10.7,90,0.2360588,0,860.4336,0,46.88,2.766,193,0.723,1.242,0.01517371,0.064,51.27,59.2,33.61,35.5
"2016-03-01 05:40:00",224735,0,0,-10.76,89.2,0.2360588,0,860.6065,0,49.57,2.739,170,0.723,1.242,0,0,51.27,59.2,33.61,35.5
"2016-03-01 05:50:00",224736,0,0,-10.82,88.4,0.2360588,0,860.598,0,49.91,2.736,190,0.723,1.242,0,0,51.27,59.2,33.61,35.5
"2016-03-01 06:00:00",224737,0,0,-10.86,88.4,0.2360588,0,860.7161,0.5,49.62,2.739,191,0.723,1.242,0.03414084,0.145,51.27,59.2,33.61,35.5
"2016-03-01 06:10:00",224738,0,0,-10.87,88.6,0.2360588,0,860.8321,0,49.52,2.74,192,0.723,1.252,0.2124319,0.9,51.27,59.2,33.61,35.5
"2016-03-01 06:20:00",224739,0,0,-10.86,87.9,0.2360588,0,860.8721,0,49.42,2.741,169,0.723,1.269,1.024225,4.339,51.27,59.2,33.61,35.5
"2016-03-01 06:30:00",224740,0,0,-10.93,88.1,0.4721206,0,861.0703,0,49.17,2.744,191,0.724,1.269,2.579544,6.412,51.27,59.2,33.61,35.5
"2016-03-01 06:40:00",224741,0,0,-11.02,88.3,1.141019,0,861.2974,0,49.01,2.746,191,0.737,1.282,5.599434,4.953,51.33,59.2,33.62,35.5
"2016-03-01 06:50:00",224742,0,0,-11.05,87.8,2.168036,0,861.4308,0,48.9,2.747,190,0.747,1.271,10.89209,5.037,51.27,59.2,33.61,35.5
"2016-03-01 07:00:00",224743,0,0,-10.99,88.3,1.802261,0,861.6067,0,48.99,2.746,234,0.76,1.269,10.56294,5.837,51.27,59.2,33.61,35.5
"2016-03-01 07:10:00",224744,0,0,-10.87,88,2.707525,0,861.7113,0,48.75,2.747,196,0.767,1.282,16.00492,5.912,51.27,59.2,33.61,35.5
"2016-03-01 07:20:00",224745,0,0,-10.79,88.1,4.832787,0,861.9071,0,48.55,2.749,191,0.73,1.276,27.97352,5.819,51.33,59.2,33.62,35.5
"2016-03-01 07:30:00",224746,0,0,-10.76,87.7,7.528763,0,861.9285,0.5,48.4,2.751,192,0.753,1.265,35.99601,4.885,51.27,59.2,33.61,35.5
"2016-03-01 07:40:00",224747,0,0,-10.6,85.7,17.78511,0,861.7567,0,48.18,2.751,192,0.737,1.296,70.1981,4.197,51.33,59.2,33.62,35.5
"2016-03-01 07:50:00",224748,0,0,-10.35,84.7,15.81737,0,861.7,0,47.71,2.754,171,0.799,1.282,84.20851,5.342,51.27,59.2,33.61,35.5
"2016-03-01 08:00:00",224749,0,0,-10.12,86.5,17.55689,0,861.7425,0,47.76,2.753,174,0.81,1.325,102.9124,5.868,51.27,59.2,33.61,35.5
"2016-03-01 08:10:00",224750,0,0,-10.07,86.2,14.21119,0,862.0803,0,47.95,2.752,170,0.803,1.322,83.13966,5.851,51.27,59.2,33.61,35.5
"2016-03-01 08:20:00",224751,0,0,-10.04,85.9,15.10277,0,861.9441,0,48.03,2.751,190,0.77,1.289,85.2241,5.658,51.33,59.2,33.62,35.5
"2016-03-01 08:30:00",224752,0,0,-10.14,86.8,12.72838,0,862.0868,0,47.7,2.754,170,0.742,1.26,70.56638,5.544,51.27,59.2,33.61,35.5
"2016-03-01 08:40:00",224753,0,0,-9.86,86.9,24.18091,0,862.3687,0,47.27,2.757,192,0.687,1.219,134.8863,5.585,51.27,59.2,33.61,35.5
"2016-03-01 08:50:00",224754,0,0,-9.63,85.8,20.75366,0,862.6204,0,46.97,2.759,170,0.709,1.211,115.4007,5.653,51.33,59.2,33.62,35.5
"2016-03-01 09:00:00",224755,0,0,-9.73,83.3,26.12391,0,862.6054,0,46.89,2.76,188,0.767,1.183,132.3833,5.087,51.27,59.2,33.61,35.5
"2016-03-01 09:10:00",224756,0,0,-9.43,82.9,25.56913,0,862.6454,0,47.1,2.757,176,0.808,1.157,146.7868,5.755,51.33,59.2,33.62,35.5
"2016-03-01 09:20:00",224757,0,0,-9.48,83.5,26.88712,0,862.6222,0,47.26,2.754,183,0.798,1.187,142.5419,5.302,51.33,59.2,33.62,35.5
"2016-03-01 09:30:00",224758,0,0,-8.73,84.3,36.62451,0,862.6159,0,47.37,2.748,171,0.749,1.304,202.1099,5.522,51.33,59.2,33.62,35.5
"2016-03-01 09:40:00",224759,0,0,-8.34,80.3,46.14818,0,862.5445,0,47.04,2.751,170,0.717,1.255,265.206,5.771,51.33,59.2,33.62,35.5
"2016-03-01 09:50:00",224760,0,0,-8.28,79.2,45.37133,0,862.4731,0,47,2.752,169,0.697,1.203,234.9401,5.195,51.33,59.2,33.62,35.5
"2016-03-01 10:00:00",224761,0,0,-8.42,80.2,40.13496,0,862.5408,0,46.9,2.754,169,0.722,1.174,201.7866,5.121,51.27,59.2,33.61,35.5
"2016-03-01 10:10:00",224762,0.994,233.1,-8.12,77.96,51.29124,0,862.619,0,46.87,2.753,182,0.724,1.161,251.4438,4.995,51.27,59.2,33.61,35.5
"2016-03-01 10:20:00",224763,0.493,68.35,-8.63,79.29,35.17283,0,862.8635,0,47.47,2.749,172,0.713,1.157,191.1705,5.424,51.27,59.2,33.61,35.5
"2016-03-01 10:30:00",224764,1.1,182,-8.48,79.32,38.81852,0,862.9705,0,46.83,2.755,169,0.753,1.196,214.8589,5.502,51.27,59.2,33.61,35.5
"2016-03-01 10:40:00",224765,0.897,191.8,-8.55,79.4,33.46568,0,863.0189,0,47.17,2.752,173,0.764,1.188,183.7745,5.46,51.33,59.2,33.62,35.5
"2016-03-01 10:50:00",224766,0.964,174.5,-8.31,78.13,53.16592,0,862.9493,0,46.71,2.754,173,0.752,1.193,260.0987,5.014,51.27,59.2,33.61,35.5
"2016-03-01 11:00:00",224767,0.851,257.3,-7.868,75.35,55.49031,0,863.0189,0,46.57,2.755,173,0.727,1.25,307.58,5.555,51.27,59.2,33.61,35.5
"2016-03-01 11:10:00",224768,0.19,114.6,-7.304,77.33,51.06572,0,863.0716,0,46.08,2.753,173,0.735,1.263,290.3334,5.757,51.33,59.2,33.62,35.5
"2016-03-01 11:20:00",224769,0.636,261.9,-7.651,74.73,41.37848,0,863.0602,0,46.11,2.759,189,0.694,1.24,245.0875,5.89,51.27,59.2,33.61,35.5
"2016-03-01 11:30:00",224770,0.84,184.2,-7.538,76.46,55.53069,0,863.2042,0,45.92,2.755,174,0.703,1.229,328.1957,5.854,51.27,59.2,33.61,35.5
"2016-03-01 11:40:00",224771,0.653,197.3,-7.259,75.54,48.93596,0,863.1692,0,45.99,2.757,172,0.72,1.211,274.5705,5.581,51.27,59.2,33.61,35.5
"2016-03-01 11:50:00",224772,0.607,216.3,-7.111,75.37,62.41828,0,862.9871,0,46.06,2.754,173,0.709,1.188,340.792,5.508,51.27,59.2,33.61,35.5
"2016-03-01 12:00:00",224773,0.869,198,-6.861,73.71,83.29922,0,862.9152,0,45.41,2.76,174,0.683,1.189,456.2479,5.492,51.27,59.2,33.61,35.5
"2016-03-01 12:10:00",224774,1.032,248.9,-6.944,74.24,60.33576,0,862.8703,0,45.74,2.758,181,0.667,1.2,337.8829,5.6,51.33,59.2,33.62,35.5
"2016-03-01 12:20:00",224775,0.747,155,-6.664,75.63,62.98894,0,862.7601,0,45.64,2.757,189,0.673,1.197,353.433,5.608,51.33,59.2,33.62,35.5
"2016-03-01 12:30:00",224776,0.777,299.9,-6.83,73.39,72.2477,0,862.7368,0,45.12,2.763,190,0.678,1.193,411.5453,5.612,51.27,59.2,33.61,35.5
"2016-03-01 12:40:00",224777,0.647,269.9,-7.04,71.47,53.30504,0,862.6915,0,45.26,2.764,189,0.678,1.189,285.6663,5.328,51.27,59.2,33.61,35.5
"2016-03-01 12:50:00",224778,0.842,297.7,-7.077,72.49,75.41054,0,862.4823,0,44.85,2.764,174,0.672,1.185,400.4345,5.262,51.33,59.2,33.62,35.5
"2016-03-01 13:00:00",224779,0.881,220.4,-6.484,72.34,69.94223,0,862.3868,0,45.1,2.762,173,0.658,1.116,372.7662,5.322,51.27,59.2,33.61,35.5
"2016-03-01 13:10:00",224780,0.792,216.3,-6.149,71.42,96.65781,0,862.3727,0,44.68,2.765,170,0.693,1.071,493.784,5.117,51.27,59.2,33.61,35.5
"2016-03-01 13:20:00",224781,0.771,230.3,-5.849,70.37,95.37579,0,862.3543,0,45.02,2.759,173,0.658,1.096,483.3596,5.089,51.27,59.2,33.61,35.5
"2016-03-01 13:30:00",224782,0.646,269.2,-5.574,69.54,86.99508,0,862.3271,0,44.4,2.766,174,0.601,1.186,446.2032,5.13,51.33,59.2,33.62,35.5
"2016-03-01 13:40:00",224783,0.689,185.7,-6.094,70.31,76.44466,0,862.1644,0,44.59,2.763,170,0.604,1.195,368.968,4.848,51.27,59.2,33.61,35.5
"2016-03-01 13:50:00",224784,0.878,265.9,-6.187,69.45,67.84082,0,862.1179,0,44.53,2.768,170,0.615,1.193,318.7013,4.719,51.33,59.2,33.62,35.5
"2016-03-01 14:00:00",224785,0.8,282.9,-6.601,71.15,52.17851,0,862.1095,0,44.52,2.769,174,0.598,1.194,248.4047,4.827,51.33,59.2,33.62,35.5
"2016-03-01 14:10:00",224786,1.084,311,-7.164,70.69,33.87121,0,862.2506,0,44.71,2.772,174,0.621,1.175,172.826,5.111,51.27,59.2,33.61,35.5
"2016-03-01 14:20:00",224787,0.775,323.3,-7.578,72.73,32.2087,0,862.3517,0,44.69,2.772,179,0.675,1.048,171.2268,5.316,51.33,59.2,33.62,35.5
"2016-03-01 14:30:00",224788,0.447,288.4,-7.382,73.48,35.0896,0,862.3517,0,44.53,2.773,177,0.672,1.029,183.6451,5.202,51.27,59.2,33.61,35.5
"2016-03-01 14:40:00",224789,0.737,331.1,-7.403,74.53,34.33105,0,862.3538,0,44.31,2.773,178,0.669,1.033,163.0527,4.719,51.27,59.2,33.61,35.5
"2016-03-01 14:50:00",224790,0.722,160.3,-6.923,75.59,30.20819,0,862.377,0,44.56,2.77,187,0.664,1.034,151.1157,4.989,51.27,59.2,33.61,35.5
"2016-03-01 15:00:00",224791,0.311,189.5,-6.812,75.95,24.59967,0,862.4423,0,43.99,2.776,179,0.598,1.05,124.3577,5.053,51.27,59.2,33.61,35.5
"2016-03-01 15:10:00",224792,1.065,289.4,-7.413,73.65,27.29977,0,862.4865,0,44.32,2.776,182,0.592,1.105,129.9435,4.76,51.33,59.2,33.62,35.5
"2016-03-01 15:20:00",224793,0.737,269.2,-7.53,74.88,19.64415,0,862.3685,0,44.11,2.778,179,0.638,1.117,86.17283,4.356,51.27,59.2,33.61,35.5
"2016-03-01 15:30:00",224794,0.664,321.4,-7.447,74.1,23.24683,0,862.3718,0,43.95,2.777,182,0.67,1.175,116.298,4.955,51.27,59.2,33.61,35.5
"2016-03-01 15:40:00",224795,0.74,310.8,-7.483,70.28,18.5555,0,862.4198,0,44.01,2.779,174,0.664,1.193,88.92829,4.809,51.27,59.2,33.61,35.5
"2016-03-01 15:50:00",224796,0.724,330.6,-7.592,69.27,18.39545,0,862.4363,0,44.04,2.778,174,0.669,1.167,94.5516,5.123,51.27,59.2,33.61,35.5
"2016-03-01 16:00:00",224797,0.461,3.755,-7.396,73.55,14.49183,0,862.4404,0,43.79,2.78,174,0.694,1.188,83.52265,5.76,51.27,59.2,33.61,35.5
"2016-03-01 16:10:00",224798,0.426,316.2,-7.314,77.06,17.03175,0,862.5341,0,43.79,2.78,178,0.681,1.194,99.02391,5.805,51.27,59.2,33.61,35.5
"2016-03-01 16:20:00",224799,0.449,6.451,-7.463,80.5,13.74889,0,862.6735,0,43.79,2.78,190,0.711,1.195,79.21326,5.774,51.27,59.2,33.61,35.5
"2016-03-01 16:30:00",224800,0.764,325.2,-7.681,79.09,13.71351,0,862.6945,0,43.7,2.783,179,0.694,1.195,71.2336,5.183,51.27,59.2,33.61,35.5
"2016-03-01 16:40:00",224801,0.161,93.8,-7.622,82.6,14.24822,0,862.6882,0,43.47,2.783,192,0.662,1.197,73.28824,5.119,51.27,59.2,33.61,35.5
"2016-03-01 16:50:00",224802,0.372,219.5,-7.42,82.3,12.93898,0,862.6945,0,43.59,2.783,190,0.668,1.195,68.96289,5.309,51.27,59.2,33.61,35.5
"2016-03-01 17:00:00",224803,0.949,285,-7.917,80.2,12.03864,0,862.6945,0,43.56,2.786,190,0.647,1.225,52.84805,4.38,51.27,59.2,33.61,35.5
"2016-03-01 17:10:00",224804,0.539,177.3,-8.15,81.7,7.635219,0,862.6988,0,43.43,2.788,191,0.681,1.184,28.96957,3.653,51.27,59.2,33.61,35.5
"2016-03-01 17:20:00",224805,0.446,206.6,-8.36,83.4,4.069234,0,862.7607,0,43.44,2.789,190,0.68,1.144,12.67656,3.142,51.33,59.2,33.62,35.5
"2016-03-01 17:30:00",224806,0.613,167.9,-8.51,82.1,2.881918,0,862.9449,0,43.52,2.789,189,0.68,1.085,11.86547,4.135,51.33,59.2,33.62,35.5
"2016-03-01 17:40:00",224807,0.407,175.9,-8.62,81.1,1.486264,0,862.9791,0,43.38,2.791,189,0.726,1.102,5.353043,3.549,51.33,59.2,33.62,35.5
"2016-03-01 17:50:00",224808,0.589,207.7,-8.79,82.1,0.7510713,0,863.0338,0,43.36,2.792,192,0.763,1.159,1.41421,1.822,51.33,59.2,33.62,35.5
"2016-03-01 18:00:00",224809,0.297,208.8,-8.87,82.4,0.2556202,0,863.0441,0,43.22,2.794,190,0.783,1.212,0.0910013,0.346,51.27,59.2,33.61,35.5
"2016-03-01 18:10:00",224810,0.274,263.6,-9.08,83.9,0.2123727,0,863.1443,0,43.38,2.793,189,0.778,1.23,0,0,51.27,59.2,33.61,35.5
"2016-03-01 18:20:00",224811,0.353,303.3,-9.06,82.2,0,0,863.2904,0,43.11,2.796,192,0.729,1.236,0,0,51.33,59.2,33.62,35.5
"2016-03-01 18:30:00",224812,0.349,298.6,-9.28,83.6,0,0,863.377,0,43.23,2.795,190,0.706,1.239,0.003792125,0,51.27,59.2,33.61,35.5
"2016-03-01 18:40:00",224813,0.297,292.7,-9.16,81.6,0,0,863.4255,0,43.15,2.796,189,0.677,1.239,0.08342679,0,51.27,59.2,33.61,35.5
"2016-03-01 18:50:00",224814,0.767,307.3,-9.17,81.6,0,0,863.5414,0,43.13,2.796,190,0.665,1.239,0.2768255,0,51.33,59.2,33.62,35.5
"2016-03-01 19:00:00",224815,0.367,308.7,-9.18,81.9,0,0,863.5436,0,43.06,2.797,189,0.671,1.239,0.2275278,0,51.27,59.2,33.61,35.5
"2016-03-01 19:10:00",224816,0.11,325.7,-9.21,85.8,0,0,863.6342,0,42.94,2.798,190,0.678,1.239,0.2199436,0,51.27,59.2,33.61,35.5
"2016-03-01 19:20:00",224817,0.074,316.7,-9.25,90.7,0,0,863.7965,0,42.88,2.799,190,0.672,1.239,0.2275278,0,51.27,59.2,33.61,35.5
"2016-03-01 19:30:00",224818,0.315,301.3,-9.28,90.7,0,0,863.7965,0,42.93,2.799,191,0.678,1.239,0.1023875,0,51.27,59.2,33.61,35.5
"2016-03-01 19:40:00",224819,0.423,294,-9.43,86,0.03932969,0,863.8049,0,42.78,2.801,190,0.68,1.238,0,0,51.27,59.2,33.61,35.5
"2016-03-01 19:50:00",224820,0.25,324.5,-9.49,86.1,0.2359782,0,863.9335,0,42.74,2.802,192,0.686,1.23,0,0,51.27,59.2,33.61,35.5
"2016-03-01 20:00:00",224821,0.427,333.7,-9.66,86,0.1455216,0,863.9651,0,42.61,2.804,190,0.715,1.228,0,0,51.33,59.2,33.62,35.5
"2016-03-01 20:10:00",224822,0.047,324,-9.81,84.7,0,0,864.0262,0,42.5,2.807,191,0.723,1.177,0,0,51.33,59.26,33.62,35.51
"2016-03-01 20:20:00",224823,0.082,254.7,-10.09,87.6,0,0,864.041,0,42.63,2.805,190,0.722,1.126,0,0,51.27,59.2,33.61,35.5
"2016-03-01 20:30:00",224824,0.36,284.5,-9.87,87.5,0,0,864.0548,0,42.61,2.805,192,0.721,1.132,0.01896069,0,51.27,59.2,33.61,35.5
"2016-03-01 20:40:00",224825,0.45,309.9,-9.8,84.9,0,0,864.0762,0,42.41,2.807,188,0.724,1.131,0.07205156,0,51.27,59.2,33.61,35.5
"2016-03-01 20:50:00",224826,0.256,344.5,-9.74,83.5,0,0,864.2274,0,41.66,2.814,192,0.743,1.135,0.02654595,0,51.27,59.2,33.61,35.5
"2016-03-01 21:00:00",224827,0.131,167.6,-10.33,84.9,0,0,864.3767,0,42.54,2.809,187,0.771,1.164,0.003792696,0,51.33,59.2,33.62,35.5
"2016-03-01 21:10:00",224828,0.193,176.9,-10.22,86.5,0,0,864.4039,0,42.45,2.809,190,0.784,1.188,0.04930966,0,51.27,59.2,33.61,35.5
"2016-03-01 21:20:00",224829,0.465,194,-10.33,86.6,0,0,864.3922,0,42.36,2.809,189,0.789,1.206,0.01896595,0,51.27,59.2,33.61,35.5
"2016-03-01 21:30:00",224830,0.638,211.6,-10.14,85.3,0,0,864.4141,0,42.38,2.809,191,0.797,1.211,0.1213834,0,51.27,59.2,33.61,35.5
"2016-03-01 21:40:00",224831,0.537,211,-10.1,85.1,0,0,864.5491,0,42.09,2.811,190,0.804,1.218,0.0834539,0,51.27,59.2,33.61,35.5
"2016-03-01 21:50:00",224832,0.674,223.1,-10.11,83.8,0,0,864.4395,0,42.16,2.81,192,0.807,1.231,0.05690084,0,51.33,59.2,33.62,35.5
"2016-03-01 22:00:00",224833,0.723,178,-10.06,80.2,0,0,864.3974,0,42.31,2.809,191,0.809,1.241,0.0531078,0,51.33,59.2,33.62,35.5
"2016-03-01 22:10:00",224834,0.728,193.2,-9.97,78.08,0,0,864.486,0,42.39,2.807,192,0.809,1.235,0.07207508,0,51.27,59.26,33.61,35.51
"2016-03-01 22:20:00",224835,1.173,185.2,-9.82,76.39,0,0,864.6399,0,41.93,2.811,191,0.809,1.231,0.1479436,0,51.27,59.2,33.61,35.5
"2016-03-01 22:30:00",224836,0.792,185.7,-9.58,74.65,0,0,864.6462,0,42.28,2.807,189,0.809,1.238,0.2124319,0,51.27,59.2,33.61,35.5
"2016-03-01 22:40:00",224837,0.941,203.2,-9.51,74.87,0,0,864.6462,0,42.19,2.807,190,0.809,1.237,0.1631174,0,51.33,59.2,33.62,35.5
"2016-03-01 22:50:00",224838,1.111,164,-9.35,74.18,0,0,864.5809,0,42,2.808,192,0.809,1.21,0.231399,0,51.27,59.2,33.61,35.5
"2016-03-01 23:00:00",224839,1.048,173.9,-9.26,74.07,0,0,864.4754,0,42.02,2.806,190,0.809,1.204,0.1744976,0,51.27,59.2,33.61,35.5
"2016-03-01 23:10:00",224840,0.561,154.3,-9.02,73.04,0,0,864.4437,0,42.01,2.807,191,0.809,1.203,0.1934648,0,51.27,59.2,33.61,35.5
"2016-03-01 23:20:00",224841,1.044,210.3,-8.93,72.96,0,0,864.642,0,41.96,2.807,191,0.809,1.201,0.1744976,0,51.27,59.2,33.61,35.5
"2016-03-01 23:30:00",224842,0.68,161,-9,73.19,0,0,864.6335,0,41.95,2.808,190,0.809,1.204,0.04552113,0,51.27,59.2,33.61,35.5
"2016-03-01 23:40:00",224843,0.807,276,-9.15,74.59,0,0,864.642,0,41.86,2.808,191,0.809,1.203,0,0,51.27,59.2,33.61,35.5
"2016-03-01 23:50:00",224844,0.763,237.5,-9,73.87,0,0,864.6399,0,41.96,2.807,190,0.809,1.201,0.01138028,0,51.27,59.2,33.61,35.5
